| time (UTC) | temp F | wind direction | speed MPH | gust MPH | rain 1hr in | rain 24hr in | rain mn in | humidity % | barometer mb |
| 20260906203321 | 77 | 0.0 | 0.0 | 0.00 | 0.00 | 0.00 | 11 | 1013.4 | |
| 20260906201359 | 77 | 0.0 | 0.0 | 0.00 | 0.00 | 0.00 | 11 | 1013.5 | |
| 20260906194827 | 77 | 0.0 | 0.0 | 0.00 | 0.00 | 0.00 | 11 | 1013.4 | |
| 20260906193815 | 77 | 0.0 | 0.0 | 0.00 | 0.00 | 0.00 | 11 | 1013.4 | |
| 20260906192703 | 77 | 0.0 | 0.0 | 0.00 | 0.00 | 0.00 | 11 | 1013.2 | |
| 20260906190841 | 77 | 0.0 | 0.0 | 0.00 | 0.00 | 0.00 | 11 | 1013.1 | |
| 20260906185322 | 78 | 0.0 | 0.0 | 0.00 | 0.00 | 0.00 | 11 | 1013.0 | |
| 20260906184209 | 78 | 0.0 | 0.0 | 0.00 | 0.00 | 0.00 | 11 | 1012.9 | |
| 20260906183157 | 78 | 0.0 | 0.0 | 0.00 | 0.00 | 0.00 | 11 | 1012.9 | |
| 20260906182043 | 78 | 0.0 | 0.0 | 0.00 | 0.00 | 0.00 | 11 | 1012.8 | |
| 20260906181031 | 80 | 0.0 | 0.0 | 0.00 | 0.00 | 0.00 | 11 | 1012.8 | |
| 20260906175818 | 80 | 0.0 | 0.0 | 0.00 | 0.00 | 0.00 | 11 | 1012.8 | |
| 20260906174502 | 80 | 0.0 | 1.0 | 0.00 | 0.00 | 0.00 | 11 | 1012.6 | |
| 20260906173450 | 80 | 0.0 | 1.0 | 0.00 | 0.00 | 0.00 | 11 | 1012.6 | |
| 20260906172438 | 80 | 0.0 | 3.0 | 0.00 | 0.00 | 0.00 | 11 | 1012.6 | |
| 20260906171427 | 80 | 3.0 | 4.0 | 0.00 | 0.00 | 0.00 | 11 | 1012.6 | |
| 20260906170415 | 82 | 3.0 | 5.0 | 0.00 | 0.00 | 0.00 | 11 | 1012.6 | |
| 20260906165403 | 82 | 1.0 | 3.0 | 0.00 | 0.00 | 0.00 | 11 | 1012.5 | |
| 20260906164351 | 82 | 0.0 | 2.0 | 0.00 | 0.00 | 0.00 | 11 | 1012.5 | |
| 20260906163340 | 84 | 0.0 | 3.0 | 0.00 | 0.00 | 0.00 | 11 | 1012.6 | |
| 20260906162328 | 84 | 3.0 | 4.0 | 0.00 | 0.00 | 0.00 | 11 | 1012.5 | |
| 20260906161317 | 84 | 1.0 | 4.0 | 0.00 | 0.00 | 0.00 | 11 | 1012.6 | |
| 20260906160305 | 84 | 2.0 | 4.0 | 0.00 | 0.00 | 0.00 | 11 | 1012.5 | |
| 20260906155253 | 84 | 1.0 | 3.0 | 0.00 | 0.00 | 0.00 | 11 | 1012.5 | |
| 20260906154242 | 84 | 0.0 | 5.0 | 0.00 | 0.00 | 0.00 | 11 | 1012.7 | |
| 20260906153129 | 84 | 3.0 | 6.0 | 0.00 | 0.00 | 0.00 | 11 | 1012.6 | |
| 20260906152117 | 86 | 3.0 | 4.0 | 0.00 | 0.00 | 0.00 | 11 | 1012.6 | |
| 20260906151106 | 87 | 1.0 | 4.0 | 0.00 | 0.00 | 0.00 | 11 | 1012.6 | |
| 20260906150054 | 86 | 1.0 | 5.0 | 0.00 | 0.00 | 0.00 | 11 | 1012.7 | |
| 20260906145042 | 87 | 3.0 | 6.0 | 0.00 | 0.00 | 0.00 | 11 | 1012.7 | |
| 20260906144032 | 86 | 1.0 | 5.0 | 0.00 | 0.00 | 0.00 | 11 | 1012.7 | |
| 20260906143020 | 86 | 3.0 | 6.0 | 0.00 | 0.00 | 0.00 | 11 | 1012.7 | |
| 20260906142009 | 87 | 2.0 | 4.0 | 0.00 | 0.00 | 0.00 | 11 | 1012.7 | |
| 20260906140958 | 86 | 4.0 | 6.0 | 0.00 | 0.00 | 0.00 | 11 | 1012.8 | |
| 20260906135946 | 86 | 1.0 | 4.0 | 0.00 | 0.00 | 0.00 | 11 | 1012.8 | |
| 20260906134935 | 87 | 1.0 | 3.0 | 0.00 | 0.00 | 0.00 | 11 | 1013.0 | |
| 20260906133920 | 86 | 2.0 | 7.0 | 0.00 | 0.00 | 0.00 | 11 | 1013.0 | |
| 20260906132909 | 86 | 1.0 | 4.0 | 0.00 | 0.00 | 0.00 | 11 | 1013.0 | |
| 20260906131857 | 87 | 2.0 | 3.0 | 0.00 | 0.00 | 0.00 | 11 | 1013.2 | |
| 20260906130846 | 84 | 4.0 | 7.0 | 0.00 | 0.00 | 0.00 | 11 | 1013.2 | |
| 20260906125830 | 86 | 3.0 | 6.0 | 0.00 | 0.00 | 0.00 | 11 | 1013.2 | |
| 20260906124819 | 86 | 3.0 | 6.0 | 0.00 | 0.00 | 0.00 | 11 | 1013.1 | |
| 20260906123808 | 86 | 3.0 | 9.0 | 0.00 | 0.00 | 0.00 | 11 | 1013.2 | |
| 20260906122756 | 87 | 3.0 | 6.0 | 0.00 | 0.00 | 0.00 | 11 | 1013.2 | |
| 20260906121745 | 87 | 2.0 | 5.0 | 0.00 | 0.00 | 0.00 | 11 | 1013.2 | |
| 20260906120734 | 87 | 2.0 | 7.0 | 0.00 | 0.00 | 0.00 | 11 | 1013.2 | |
| 20260906115722 | 87 | 1.0 | 4.0 | 0.00 | 0.00 | 0.00 | 11 | 1013.1 | |
| 20260906114711 | 87 | 2.0 | 3.0 | 0.00 | 0.00 | 0.00 | 11 | 1013.1 | |
| 20260906113700 | 86 | 0.0 | 4.0 | 0.00 | 0.00 | 0.00 | 11 | 1013.2 | |
| 20260906112648 | 87 | 2.0 | 3.0 | 0.00 | 0.00 | 0.00 | 11 | 1013.1 | |
| 20260906111637 | 87 | 0.0 | 5.0 | 0.00 | 0.00 | 0.00 | 11 | 1013.0 | |
| 20260906110626 | 84 | 4.0 | 5.0 | 0.00 | 0.00 | 0.00 | 11 | 1013.0 | |
| 20260906105614 | 84 | 3.0 | 6.0 | 0.00 | 0.00 | 0.00 | 11 | 1013.2 | |
| 20260906104602 | 82 | 2.0 | 6.0 | 0.00 | 0.00 | 0.00 | 11 | 1013.0 | |
| 20260906103551 | 86 | 2.0 | 6.0 | 0.00 | 0.00 | 0.00 | 11 | 1013.1 | |
| 20260906102539 | 86 | 1.0 | 4.0 | 0.00 | 0.00 | 0.00 | 11 | 1013.2 | |
| 20260906101528 | 84 | 1.0 | 6.0 | 0.00 | 0.00 | 0.00 | 11 | 1013.1 | |
| 20260906100515 | 84 | 5.0 | 8.0 | 0.00 | 0.00 | 0.00 | 11 | 1013.2 | |
| 20260906095501 | 87 | 3.0 | 6.0 | 0.00 | 0.00 | 0.00 | 11 | 1013.3 | |
| 20260906094449 | 87 | 3.0 | 8.0 | 0.00 | 0.00 | 0.00 | 11 | 1013.1 | |
| 20260906093437 | 87 | 2.0 | 6.0 | 0.00 | 0.00 | 0.00 | 11 | 1013.1 | |
| 20260906092424 | 87 | 2.0 | 7.0 | 0.00 | 0.00 | 0.00 | 11 | 1013.1 | |
| 20260906091413 | 87 | 1.0 | 8.0 | 0.00 | 0.00 | 0.00 | 11 | 1013.1 | |
| 20260906090400 | 86 | 3.0 | 8.0 | 0.00 | 0.00 | 0.00 | 11 | 1013.1 | |
| 20260906085347 | 86 | 1.0 | 9.0 | 0.00 | 0.00 | 0.00 | 11 | 1013.0 | |
| 20260906084336 | 84 | 3.0 | 6.0 | 0.00 | 0.00 | 0.00 | 11 | 1013.1 | |
| 20260906083324 | 86 | 2.0 | 8.0 | 0.00 | 0.00 | 0.00 | 11 | 1013.1 | |
| 20260906082312 | 86 | 1.0 | 4.0 | 0.00 | 0.00 | 0.00 | 11 | 1013.1 | |
| 20260906081301 | 86 | 2.0 | 8.0 | 0.00 | 0.00 | 0.00 | 11 | 1013.0 | |
| 20260906080249 | 86 | 2.0 | 8.0 | 0.00 | 0.00 | 0.00 | 11 | 1012.9 | |
| 20260906075236 | 86 | 1.0 | 5.0 | 0.00 | 0.00 | 0.00 | 11 | 1012.9 | |
| 20260906074223 | 84 | 4.0 | 8.0 | 0.00 | 0.00 | 0.00 | 11 | 1012.8 | |
| 20260906073206 | 86 | 0.0 | 1.0 | 0.00 | 0.00 | 0.00 | 11 | 1012.8 | |
| 20260906072152 | 82 | 0.0 | 3.0 | 0.00 | 0.00 | 0.00 | 11 | 1012.6 | |
| 20260906071139 | 82 | 0.0 | 1.0 | 0.00 | 0.00 | 0.00 | 11 | 1012.5 | |
| 20260906070127 | 82 | 0.0 | 2.0 | 0.00 | 0.00 | 0.00 | 11 | 1012.7 | |
| 20260906065115 | 82 | 0.0 | 1.0 | 0.00 | 0.00 | 0.00 | 11 | 1012.6 | |
| 20260906064103 | 80 | 0.0 | 0.0 | 0.00 | 0.00 | 0.00 | 11 | 1012.4 | |
| 20260906063051 | 78 | 0.0 | 0.0 | 0.00 | 0.00 | 0.00 | 11 | 1012.4 | |
| 20260906061939 | 71 | 0.0 | 2.0 | 0.00 | 0.00 | 0.00 | 11 | 1012.3 | |
| 20260906060928 | 69 | 0.0 | 0.0 | 0.00 | 0.00 | 0.00 | 11 | 1012.1 | |
| 20260906055917 | 69 | 0.0 | 0.0 | 0.00 | 0.00 | 0.00 | 11 | 1012.0 | |
| 20260906054905 | 69 | 0.0 | 0.0 | 0.00 | 0.00 | 0.00 | 11 | 1012.2 | |
| 20260906053651 | 69 | 0.0 | 0.0 | 0.00 | 0.00 | 0.00 | 11 | 1012.0 | |
| 20260906052640 | 69 | 0.0 | 0.0 | 0.00 | 0.00 | 0.00 | 11 | 1011.9 | |
| 20260906051629 | 69 | 0.0 | 0.0 | 0.00 | 0.00 | 0.00 | 11 | 1011.9 | |
| 20260906050011 | 69 | 0.0 | 1.0 | 0.00 | 0.00 | 0.00 | 11 | 1011.9 | |
| 20260906045000 | 69 | 0.0 | 0.0 | 0.00 | 0.00 | 0.00 | 11 | 1011.8 | |
| 20260906043948 | 69 | 0.0 | 0.0 | 0.00 | 0.00 | 0.00 | 11 | 1011.6 | |
| 20260906042532 | 69 | 0.0 | 0.0 | 0.00 | 0.00 | 0.00 | 11 | 1011.5 | |
| 20260906041517 | 69 | 0.0 | 0.0 | 0.00 | 0.00 | 0.00 | 11 | 1011.4 | |
| 20260906040506 | 69 | 0.0 | 0.0 | 0.00 | 0.00 | 0.00 | 11 | 1011.4 | |
| 20260906035455 | 69 | 0.0 | 1.0 | 0.00 | 0.00 | 0.00 | 11 | 1011.3 | |
| 20260906034442 | 69 | 0.0 | 0.0 | 0.00 | 0.00 | 0.00 | 11 | 1011.2 | |
| 20260906033430 | 69 | 0.0 | 0.0 | 0.00 | 0.00 | 0.00 | 11 | 1011.2 | |
| 20260906032419 | 71 | 0.0 | 0.0 | 0.00 | 0.00 | 0.00 | 11 | 1011.2 | |
| 20260906031408 | 71 | 0.0 | 3.0 | 0.00 | 0.00 | 0.00 | 11 | 1011.2 | |
| 20260906030356 | 71 | 0.0 | 1.0 | 0.00 | 0.00 | 0.00 | 11 | 1011.2 | |
| 20260906025344 | 71 | 0.0 | 1.0 | 0.00 | 0.00 | 0.00 | 11 | 1011.2 | |
| 20260906022310 | 71 | 0.0 | 0.0 | 0.00 | 0.00 | 0.00 | 11 | 1011.1 | |
| 20260906015537 | 71 | 0.0 | 0.0 | 0.00 | 0.00 | 0.00 | 11 | 1011.2 | |
| 20260906011551 | 71 | 0.0 | 3.0 | 0.00 | 0.00 | 0.00 | 11 | 1011.1 | |
| 20260906005427 | 71 | 0.0 | 0.0 | 0.00 | 0.00 | 0.00 | 11 | 1011.2 | |
| 20260906004011 | 73 | 0.0 | 0.0 | 0.00 | 0.00 | 0.00 | 11 | 1011.1 | |
| 20260906000929 | 73 | 0.0 | 0.0 | 0.00 | 0.00 | 0.00 | 11 | 1011.1 | |
| 20260905232719 | 73 | 0.0 | 0.0 | 0.00 | 0.00 | 0.00 | 11 | 1011.2 | |
| 20260905230758 | 73 | 0.0 | 1.0 | 0.00 | 0.00 | 0.00 | 11 | 1011.3 | |
| 20260905225645 | 73 | 0.0 | 0.0 | 0.00 | 0.00 | 0.00 | 11 | 1011.3 | |
| 20260905224225 | 73 | 0.0 | 0.0 | 0.00 | 0.00 | 0.00 | 11 | 1011.3 | |
| 20260905223213 | 75 | 0.0 | 0.0 | 0.00 | 0.00 | 0.00 | 11 | 1011.4 | |
| 20260905222157 | 75 | 0.0 | 1.0 | 0.00 | 0.00 | 0.00 | 11 | 1011.2 | |
| 20260905221145 | 75 | 0.0 | 1.0 | 0.00 | 0.00 | 0.00 | 11 | 1011.2 | |
| 20260905220133 | 75 | 1.0 | 1.0 | 0.00 | 0.00 | 0.00 | 11 | 1011.2 | |
| 20260905215117 | 75 | 0.0 | 0.0 | 0.00 | 0.00 | 0.00 | 11 | 1011.1 | |
| 20260905214106 | 75 | 1.0 | 1.0 | 0.00 | 0.00 | 0.00 | 11 | 1011.1 | |
| 20260905213051 | 75 | 0.0 | 0.0 | 0.00 | 0.00 | 0.00 | 11 | 1011.1 | |
| 20260905211938 | 77 | 0.0 | 0.0 | 0.00 | 0.00 | 0.00 | 11 | 1011.0 | |
| 20260905210825 | 77 | 0.0 | 0.0 | 0.00 | 0.00 | 0.00 | 11 | 1011.0 | |
| 20260905205813 | 77 | 0.0 | 0.0 | 0.00 | 0.00 | 0.00 | 11 | 1011.1 | |
| 20260905204457 | 77 | 0.0 | 0.0 | 0.00 | 0.00 | 0.00 | 11 | 1011.1 |